Flag for Canada Weather past 2 weeks in Iqaluit, Nunavut Territory, Canada

Now
27 °F

Partly sunny.


Feels Like: 14 °F
Forecast: 18 / 26 °F
Wind: 17 mph from Northwest

Location: Iqaluit

Current Time: Oct 1, 2014 at 11:28:42 AM

Latest Report: Oct 1, 2014 at 10:00 AM


Visibility: 20 mi

Pressure: 29.97 "Hg

Humidity: 69%

Dew point: 18 °F

Location of IqaluitLocation

Historic Weather in Iqaluit — Graph

°F

Iqaluit temperature yesterday

Maximum temperature yesterday: 27 °F (at 1:00 PM)
Minimum temperature yesterday: 19 °F (at 11:00 PM)
Average temperature yesterday: 24 °F

Past Weeks' High & Low Weather Summary

 TemperatureHumidityPressure
High48 °F (Sep 17, 3:00 PM)100% (Sep 17, 3:00 AM)29.97 "Hg (Sep 17, 3:00 AM)
Low18 °F (Oct 1, 2:00 AM)48% (Sep 22, 1:00 PM)29.46 "Hg (Sep 17, 11:00 PM)
Average32 °F79%29.67 "Hg
* Reported Sep 16 10:00 AM — Oct 1 10:00 AM, Iqaluit, Weather by CustomWeather, © 2014

Note: Actual official high and low records may vary slightly from our data, if they occured in-between our weather recording intervals... More about our weather records

Advertising

Iqaluit weather history for previous 24 hours

 ConditionsComfort  
Time TempWeatherWind HumidityBarometerVisibility
10:00 AM
Oct 1
27 °FPartly sunny.17 mph69%29.97 "Hg20 mi
9:00 AM25 °FOvercast.12 mph80%29.97 "Hg20 mi
8:00 AM23 °FBroken clouds.7 mph80%29.96 "Hg30 mi
7:00 AM23 °FLight snow. Partly sunny.8 mph80%29.95 "Hg20 mi
6:00 AM23 °FLight snow. Broken clouds.9 mph80%29.94 "Hg15 mi
5:00 AM21 °FLight snow. Passing clouds.12 mph86%29.93 "Hg15 mi
4:00 AM19 °FPassing clouds.14 mph79%29.92 "Hg15 mi
3:00 AM21 °FLight snow. Passing clouds.15 mph80%29.90 "Hg15 mi
2:00 AM18 °FSnow flurries. Clear.10 mph79%29.89 "Hg15 mi
1:00 AM19 °FSnow flurries. Passing clouds.13 mph73%29.87 "Hg15 mi
12:00 AM19 °FLight snow. Passing clouds.10 mph79%29.85 "Hg15 mi
11:00 PM
Sep 30
19 °FPassing clouds.7 mph79%29.84 "Hg15 mi
10:00 PM23 °FLight snow. Overcast.13 mph74%29.83 "Hg15 mi
9:00 PM23 °FSnow flurries. Overcast.9 mph74%29.81 "Hg15 mi
8:00 PM23 °FSnow flurries. Partly cloudy.10 mph80%29.79 "Hg15 mi
7:00 PM23 °FSnow flurries. Passing clouds.15 mph80%29.78 "Hg2 mi
6:50 PM25 °FSnow flurries. Ice fog.16 mph74%29.77 "Hg1 mi
6:00 PM25 °FPartly cloudy.12 mph74%29.76 "Hg15 mi
5:00 PM25 °FBroken clouds.14 mph69%29.75 "Hg15 mi
4:00 PM25 °FSnow flurries. Broken clouds.16 mph74%29.72 "Hg10 mi
3:53 PM25 °FSnow flurries. Broken clouds.20 mph69%29.72 "Hg10 mi
3:00 PM25 °FPartly sunny.21 mph63%29.71 "Hg10 mi
2:00 PM25 °FBroken clouds.17 mph74%29.68 "Hg20 mi
1:00 PM27 °FScattered clouds.20 mph69%29.67 "Hg25 mi
Weather by CustomWeather, © 2014

See weather overviewHow to use our weather pages